Monroe, MI

8:55 AM EST on January 16, 2018 (GMT -0500)
Custer

Weather History for KTTF - March, 2013

Change the Weather History Date:

Monday, March 11, 2013

  Actual Average Record
Temperature  
Mean Temperature 48 °F -  
Max Temperature 57 °F 43 °F 67 °F (1973)
Min Temperature 39 °F 26 °F 8 °F (1960)
Degree Days  
Heating Degree Days 17    
Moisture  
Dew Point 44 °F    
Average Humidity 79    
Maximum Humidity 94    
Minimum Humidity 59    
Precipitation  
Precipitation 0.00 in - - ()
Sea Level Pressure  
Sea Level Pressure 29.66 in    
Wind  
Wind Speed 13 mph (SSW)    
Max Wind Speed 25 mph    
Max Gust Speed 34 mph    
Visibility 10 miles    
Events Rain    
Averages and records for this station are not official NWS values.
T = Trace of Precipitation, MM = Missing Value Source: NWS Daily Summary

Daily Weather History Graph

Daily Weather History Graph

Search for Another Location

Airport or City:

Trip Planner

Search our weather history database for the weather conditions in past years. The results will help you decide how hot, cold, wet, or windy it might be!

Date:

Astronomy

Mar. 11, 2013 Rise Set
Actual Time 7:51 AM EDT 7:35 PM EDT
Civil Twilight 7:24 AM EDT 8:03 PM EDT
Nautical Twilight 6:51 AM EDT 8:36 PM EDT
Astronomical Twilight 6:19 AM EDT 9:08 PM EDT
Moon 7:24 AM EDT (3/11) 7:48 PM EDT (3/11)
Length of Visible Light 12h 39m
Length of Day
11h 44m
Waning Crescent, 0% of the Moon is Illuminated
Mar 11
Waning Crescent
Mar 11
New
Mar 19
First Quarter
Mar 27
Full
Apr 3
Last Quarter

Hourly Weather History & Observations

Time (EDT) Temp. Windchill Dew Point Humidity Pressure Visibility Wind Dir Wind Speed Gust Speed Precip Events Conditions
12:12 AM 51.8 °F - 41.0 °F 67% 29.82 in 10.0 mi South 4.6 mph - N/A Rain Light Rain
12:32 AM 53.6 °F - 41.0 °F 62% 29.81 in 10.0 mi SSE 5.8 mph - N/A   Light Drizzle
1:12 AM 57.2 °F - 42.8 °F 59% 29.79 in 10.0 mi South 6.9 mph - N/A Rain Light Rain
1:32 AM 55.4 °F - 42.8 °F 63% 29.79 in 10.0 mi South 11.5 mph - N/A Rain Light Rain
1:52 AM 57.2 °F - 42.8 °F 59% 29.78 in 10.0 mi SSW 15.0 mph 25.3 mph N/A   Overcast
2:12 AM 57.2 °F - 44.6 °F 63% 29.77 in 10.0 mi South 10.4 mph - N/A Rain Rain
2:33 AM 55.4 °F - 44.6 °F 67% 29.76 in 10.0 mi South 10.4 mph - N/A   Overcast
3:13 AM 55.4 °F - 46.4 °F 72% 29.76 in 10.0 mi South 17.3 mph 24.2 mph N/A Rain Light Rain
3:33 AM 55.4 °F - 46.4 °F 72% 29.75 in 10.0 mi South 23.0 mph 29.9 mph N/A   Overcast
3:53 AM 55.4 °F - 48.2 °F 77% 29.74 in 10.0 mi South 17.3 mph 25.3 mph N/A   Light Drizzle
4:13 AM 53.6 °F - 48.2 °F 82% 29.73 in 10.0 mi South 18.4 mph 26.5 mph N/A Rain Light Rain
4:33 AM 53.6 °F - 48.2 °F 82% 29.73 in 10.0 mi South 16.1 mph 27.6 mph N/A   Overcast
4:53 AM 53.6 °F - 48.2 °F 82% 29.72 in 10.0 mi South 16.1 mph 23.0 mph N/A   Overcast
5:13 AM 53.6 °F - 48.2 °F 82% 29.72 in 10.0 mi South 12.7 mph 23.0 mph N/A   Overcast
5:33 AM 53.6 °F - 46.4 °F 77% 29.72 in 10.0 mi South 11.5 mph 16.1 mph N/A   Overcast
5:54 AM 51.8 °F - 46.4 °F 82% 29.72 in 10.0 mi SSE 11.5 mph - N/A   Overcast
6:14 AM 51.8 °F - 46.4 °F 82% 29.71 in 10.0 mi South 13.8 mph 17.3 mph N/A   Overcast
6:34 AM 53.6 °F - 48.2 °F 82% 29.72 in 10.0 mi South 11.5 mph - N/A   Overcast
6:54 AM 53.6 °F - 48.2 °F 82% 29.71 in 10.0 mi South 13.8 mph 19.6 mph N/A   Overcast
7:14 AM 53.6 °F - 48.2 °F 82% 29.72 in 10.0 mi South 17.3 mph 24.2 mph N/A   Overcast
7:34 AM 53.6 °F - 48.2 °F 82% 29.70 in 10.0 mi South 11.5 mph 19.6 mph N/A   Overcast
7:54 AM 53.6 °F - 46.4 °F 77% 29.70 in 10.0 mi South 15.0 mph 18.4 mph N/A   Overcast
8:14 AM 53.6 °F - 46.4 °F 77% 29.71 in 10.0 mi South 15.0 mph 21.9 mph N/A   Overcast
8:34 AM 53.6 °F - 46.4 °F 77% 29.71 in 10.0 mi South 18.4 mph 26.5 mph N/A   Overcast
8:54 AM 53.6 °F - 46.4 °F 77% 29.70 in 10.0 mi South 17.3 mph 27.6 mph N/A   Overcast
9:15 AM 53.6 °F - 48.2 °F 82% 29.71 in 10.0 mi South 19.6 mph 31.1 mph N/A   Overcast
9:35 AM 53.6 °F - 48.2 °F 82% 29.71 in 10.0 mi South 18.4 mph 31.1 mph N/A   Overcast
9:55 AM 53.6 °F - 48.2 °F 82% 29.70 in 10.0 mi South 19.6 mph 25.3 mph N/A   Mostly Cloudy
10:15 AM 53.6 °F - 46.4 °F 77% 29.70 in 10.0 mi South 18.4 mph 25.3 mph N/A   Mostly Cloudy
10:35 AM 51.8 °F - 48.2 °F 88% 29.70 in 5.0 mi South 16.1 mph 19.6 mph N/A Rain Light Rain
10:55 AM 53.6 °F - 48.2 °F 82% 29.69 in 10.0 mi South 16.1 mph 20.7 mph N/A   Overcast
11:15 AM 53.6 °F - 46.4 °F 77% 29.67 in 10.0 mi South 17.3 mph 23.0 mph N/A   Overcast
11:35 AM 53.6 °F - 46.4 °F 77% 29.65 in 10.0 mi SSE 15.0 mph 21.9 mph N/A   Mostly Cloudy
11:55 AM 53.6 °F - 46.4 °F 77% 29.65 in 10.0 mi SSE 15.0 mph - N/A   Overcast
12:11 PM 53.6 °F - 46.4 °F 77% 29.64 in 10.0 mi South 11.5 mph - N/A   Overcast
12:31 PM 53.6 °F - 46.4 °F 77% 29.62 in 10.0 mi SSE 12.7 mph - N/A Rain Light Rain
12:51 PM 53.6 °F - 46.4 °F 77% 29.61 in 10.0 mi SSE 13.8 mph - N/A   Overcast
1:11 PM 53.6 °F - 46.4 °F 77% 29.61 in 10.0 mi South 10.4 mph 18.4 mph N/A   Overcast
1:31 PM 53.6 °F - 46.4 °F 77% 29.58 in 10.0 mi SSE 13.8 mph 21.9 mph N/A Rain Light Rain
1:51 PM 51.8 °F - 48.2 °F 88% 29.57 in 10.0 mi SSE 12.7 mph 21.9 mph N/A Rain Rain
2:11 PM 51.8 °F - 48.2 °F 88% 29.56 in 7.0 mi South 11.5 mph 18.4 mph N/A Rain Light Rain
2:31 PM 51.8 °F - 48.2 °F 88% 29.54 in 7.0 mi SSE 17.3 mph 24.2 mph N/A Rain Light Rain
2:51 PM 51.8 °F - 48.2 °F 88% 29.53 in 7.0 mi South 12.7 mph - N/A Rain Light Rain
3:11 PM 51.8 °F - 48.2 °F 88% 29.51 in 7.0 mi SSE 10.4 mph - N/A Rain Light Rain
3:32 PM 51.8 °F - 48.2 °F 88% 29.48 in 7.0 mi SSE 9.2 mph - N/A   Drizzle
3:52 PM 51.8 °F - 48.2 °F 88% 29.47 in 7.0 mi South 8.1 mph - N/A Rain Light Rain
4:12 PM 51.8 °F - 50.0 °F 94% 29.48 in 5.0 mi WSW 8.1 mph - N/A Rain Heavy Rain
4:32 PM 53.6 °F - 50.0 °F 88% 29.49 in 4.0 mi SW 17.3 mph 24.2 mph N/A Rain Rain
4:52 PM 51.8 °F - 48.2 °F 88% 29.51 in 10.0 mi WSW 18.4 mph 24.2 mph N/A Rain Light Rain
5:12 PM 50.0 °F - 46.4 °F 87% 29.53 in 10.0 mi WSW 17.3 mph 26.5 mph N/A Rain Light Rain
5:32 PM 50.0 °F - 46.4 °F 87% 29.52 in 10.0 mi WSW 16.1 mph 21.9 mph N/A Rain Light Rain
5:52 PM 51.8 °F - 46.4 °F 82% 29.53 in 10.0 mi WSW 19.6 mph 25.3 mph N/A   Mostly Cloudy
6:12 PM 50.0 °F - 46.4 °F 87% 29.55 in 10.0 mi WSW 18.4 mph 21.9 mph N/A   Mostly Cloudy
6:33 PM 48.2 °F - 41.0 °F 76% 29.57 in 10.0 mi WSW 19.6 mph 28.8 mph N/A   Overcast
6:53 PM 46.4 °F 39.2 °F 41.0 °F 81% 29.58 in 10.0 mi WSW 18.4 mph 26.5 mph N/A   Overcast
7:13 PM 46.4 °F 39.2 °F 39.2 °F 76% 29.59 in 10.0 mi WSW 18.4 mph 25.3 mph N/A   Overcast
7:33 PM 46.4 °F 40.1 °F 39.2 °F 76% 29.60 in 10.0 mi SW 15.0 mph 23.0 mph N/A   Overcast
7:53 PM 46.4 °F 39.0 °F 37.4 °F 71% 29.61 in 10.0 mi SW 19.6 mph 29.9 mph N/A   Overcast
8:13 PM 46.4 °F 40.7 °F 37.4 °F 71% 29.61 in 10.0 mi SW 12.7 mph 24.2 mph N/A   Overcast
8:33 PM 44.6 °F 37.2 °F 37.4 °F 76% 29.62 in 10.0 mi SW 17.3 mph 29.9 mph N/A   Overcast
8:53 PM 44.6 °F 37.2 °F 37.4 °F 76% 29.63 in 10.0 mi WSW 17.3 mph 21.9 mph N/A   Overcast
9:13 PM 42.8 °F 34.3 °F 35.6 °F 76% 29.64 in 10.0 mi WSW 19.6 mph 31.1 mph N/A   Overcast
9:33 PM 42.8 °F 33.5 °F 35.6 °F 76% 29.65 in 10.0 mi WSW 23.0 mph 33.4 mph N/A   Overcast
9:53 PM 41.0 °F 31.4 °F 35.6 °F 81% 29.67 in 10.0 mi WSW 21.9 mph 34.5 mph N/A   Overcast
10:14 PM 41.0 °F 32.8 °F 35.6 °F 81% 29.68 in 10.0 mi WSW 16.1 mph 29.9 mph N/A   Overcast
10:34 PM 39.2 °F 28.3 °F 33.8 °F 81% 29.69 in 10.0 mi WSW 25.3 mph 29.9 mph N/A   Overcast
10:54 PM 39.2 °F 29.8 °F 33.8 °F 81% 29.70 in 10.0 mi WSW 18.4 mph 31.1 mph N/A   Overcast
11:14 PM 39.2 °F 29.8 °F 33.8 °F 81% 29.70 in 10.0 mi WSW 18.4 mph 28.8 mph N/A   Overcast
11:34 PM 39.2 °F 29.8 °F 33.8 °F 81% 29.71 in 10.0 mi WSW 18.4 mph 28.8 mph N/A   Overcast
11:54 PM 39.2 °F 30.5 °F 33.8 °F 81% 29.71 in 10.0 mi WSW 16.1 mph 23.0 mph N/A   Overcast